Regional Weather Roundup
Issued by NWS

Home | Current Version | Previous Version | Graphics & Text | Print | Product List | Glossary On
Versions: 1 2 3 4 5 6 7 8 9 10 11 12 13 14 15 16 17 18 19 20 21 22 23 24 25 26 27 28
000
ASUS45 KTFX 310910
RWRMT
MONTANA REGIONAL WEATHER ROUNDUP
NATIONAL WEATHER SERVICE GREAT FALLS MT
300 AM MDT WED AUG 31 2016

NOTE: "FAIR" INDICATES FEW OR NO CLOUDS BELOW 12000 FEET WITH NO
SIGNIFICANT WEATHER AND/OR OBSTRUCTIONS TO VISIBILITY.

MTZ001>007-043-311000-
WEST OF THE DIVIDE

CITY           SKY/WX    TMP DP  RH WIND       PRES   REMARKS
KALISPELL      PTCLDY    64  49  57 N7        29.91F
MISSOULA       CLEAR     64  41  42 CALM      29.96R
BUTTE          CLOUDY    57  32  38 SE6       30.12F
MULLAN PASS    CLEAR     57  36  45 NW8       30.13F
DEER LODGE       N/A     59  37  44 CALM      30.08S
EUREKA           N/A     63  46  55 CALM      29.93S
HAMILTON         N/A     63  39  42 E7        29.96F
LIBBY            N/A     63  45  51 SE3       29.94R
PLAINS           N/A     60  46  59 CALM      29.95R
THOMPSON FALLS   N/A     61  47  59 CALM      29.99R
$$

MTZ008-052>055-311000-
SOUTHWEST MONTANA

CITY           SKY/WX    TMP DP  RH WIND       PRES   REMARKS
BOZEMAN        PTCLDY    55  40  56 SE6       30.06S
DILLON         CLEAR     61  29  29 S8        30.08R
W YELLOWSTONE  CLOUDY    41  25  52 CALM      30.26S
ENNIS          CLEAR     64  25  22 S9        30.15S
$$

MTZ009-010-012-014-046-048-049-054-311000-
EAST SLOPES AND CENTRAL MONTANA

CITY           SKY/WX    TMP DP  RH WIND       PRES   REMARKS
CUT BANK       MOCLDY    66  49  54 CALM      30.00F
GREAT FALLS    PTCLDY    66  48  52 E5        29.97F
MALMSTROM AFB  MOCLDY    64  48  54 MISG      29.97F
HELENA         CLOUDY    64  39  39 E3        30.02R
CHOTEAU          N/A     63  46  55 NE10      30.02F
CONRAD           N/A     60  54  80 S6        30.07R
$$

MTZ011-013-016-021-045-047-050-051-311000-
NORTH CENTRAL MONTANA

CITY           SKY/WX    TMP DP  RH WIND       PRES   REMARKS
HAVRE          MOCLDY    63  56  78 E9        29.97F
LEWISTOWN      PTCLDY    65  48  54 SE6       30.06F
N BAR RANCH    MOCLDY    63  43  48 W7        30.11F
CHINOOK          N/A     64  57  77 E6        29.99F
$$

MTZ017>020-022>027-061-062-311000-
NORTHEAST MONTANA

CITY           SKY/WX    TMP DP  RH WIND       PRES   REMARKS
GLASGOW        CLEAR     67  53  61 E15       29.99F
JORDAN           N/A     62  56  80 E5        29.99F
SIDNEY         CLEAR     63  53  70 NE6       30.08S
WOLF POINT     CLEAR     64  51  62 E8        30.02F
PLENTYWOOD       N/A     64  48  55 E12       30.10S
POPLAR           N/A     68  52  56 E9        30.04S
SCOBEY           N/A     66  46  48 E10       30.06
$$

MTZ028>42-056>058-311000-
SOUTHCENTRAL AND SOUTHEAST MONTANA

CITY           SKY/WX    TMP DP  RH WIND       PRES   REMARKS
BAKER          CLEAR     63  57  81 SE9       30.10F
BILLINGS       CLOUDY    70  45  40 S5        30.02F
LIVINGSTON     CLOUDY    61  40  45 VRB3      30.09S
MILES CITY     PTCLDY    74  50  42 SE14      30.01S
EKALAKA          N/A     74  52  46 SE13      30.09
FORSYTH          N/A     79  45  29 S13       29.98R
LAUREL           N/A     64  42  44 CALM      30.02F
ROUNDUP          N/A     59  45  59 SW5       29.95S
$$

REGIONAL REPORTS...DAKOTAS

CITY           SKY/WX    TMP DP  RH WIND       PRES   REMARKS
WILLISTON      PTCLDY    68  53  58 SE10      30.11F
MINOT          PTCLDY    60  53  77 E6        30.19S
DICKINSON      CLEAR     57  54  89 E9        30.12F
CROSBY           N/A     55  50  82 E8        30.17S
WATFORD CITY     N/A     63  50  63 E12       30.12F
BISMARCK       MOCLDY    62  54  74 E9        30.18F
GRAND FORKS    CLEAR     52  48  86 NW5       30.22F
FARGO          CLEAR     54  51  90 CALM      30.22R
BUFFALO SD       N/A     64  60  87 S9        30.07S
RAPID CITY     CLEAR     61  54  77 SE3       30.18S
$$

REGIONAL REPORTS...WYOMING/IDAHO/WASHINGTON

CITY           SKY/WX    TMP DP  RH WIND       PRES   REMARKS
GILLETTE       CLEAR     66  52  60 S16       30.19F
SHERIDAN       PTCLDY    72  44  36 S10       30.08S
BUFFALO WY     CLEAR     66  44  45 S9        30.20S
CODY           CLOUDY    59  30  33 S5        30.15S
YELLOWSTONE LA   N/A     46  33  60 NW3       30.38S
IDAHO FALLS    CLOUDY    56  37  49 NW5       30.07F
SALMON         PTCLDY    54  43  66 E6        30.01R
BOISE          CLOUDY    66  44  45 SE8       29.89F
SPOKANE        CLEAR     59  43  55 SE7       29.95S
$$

REGIONAL REPORTS...ALBERTA

CITY           SKY/WX    TMP DP  RH WIND       PRES   REMARKS
EDMONTON       PTCLDY    57  50  77 E8        30.03F
CALGARY        MOCLDY    63  55  77 SW8       30.02R
LETHBRIDGE     CLOUDY    70  52  52 NE10G17   29.95S
MEDICINE HAT   CLEAR     66  57  72 NE5       29.97S
WATERTON GATE    N/A     55  48  76 S1          N/A
CARDSTON         N/A     64  46  52 S3          N/A
MILK RIVER       N/A     66  50  55 S5          N/A
$$

REGIONAL REPORTS...SASKATCHEWAN

CITY           SKY/WX    TMP DP  RH WIND       PRES   REMARKS
SWIFT CURRENT  CLEAR     57  50  77 E10       30.07F
REGINA         CLEAR     59  50  72 E15G21    30.16F
SASKATOON      CLEAR     55  46  71 E9        30.18F
CYPRESS HILLS    N/A     63  54  72 SE9         N/A
VAL MARIE        N/A     63  54  72 NE7         N/A
ROCKGLEN         N/A     59  48  67 E5          N/A
ASSINIBOIA       N/A     59  46  63 E9          N/A
$$




USA.gov is the U.S. government's official web portal to all federal, state and local government web resources and services.